owner,sensor,date,latitude,longitude,vertical_datum,wind_speed,wind_to_direction,wind_speed_of_gust,qcFlag 
TABS,ioos:station:wmo:42046:1,2007-07-01T00:00:00Z,27.8903,-94.0367,4.0,4.776410786,153.9180384,6.36,'11111222,11111222,11111222' 
TABS,ioos:station:wmo:42046:1,2007-07-01T00:30:00Z,27.8903,-94.0367,4.0,4.669603838,152.4474633,5.82,'11111222,11111222,11111222' 
TABS,ioos:station:wmo:42046:1,2007-07-01T01:00:00Z,27.8903,-94.0367,4.0,4.929300153,149.7940447,6.21,'11111222,11111222,11111222' 
TABS,ioos:station:wmo:42046:1,2007-07-01T01:30:00Z,27.8903,-94.0367,4.0,5.035494017,162.7887695,7.13,'11111222,11111222,11111222' 
TABS,ioos:station:wmo:42046:1,2007-07-01T02:00:00Z,27.8903,-94.0367,4.0,5.584129296,163.3501439,7.24,'11111222,11111222,11111222' 
TABS,ioos:station:wmo:42046:1,2007-07-01T02:30:00Z,27.8903,-94.0367,4.0,5.379256454,170.1526765,6.65,'11111222,11111222,11111222' 
TABS,ioos:station:wmo:42046:1,2007-07-01T03:00:00Z,27.8903,-94.0367,4.0,4.768196724,169.6094071,6.34,'11111222,11111222,11111222' 
TABS,ioos:station:wmo:42046:1,2007-07-01T03:30:00Z,27.8903,-94.0367,4.0,4.858003705,170.4021849,6.07,'11111222,11111222,11111222' 
TABS,ioos:station:wmo:42046:1,2007-07-01T04:00:00Z,27.8903,-94.0367,4.0,4.518517456,166.3022955,5.81,'11111222,11111222,11111222' 
TABS,ioos:station:wmo:42046:1,2007-07-01T04:30:00Z,27.8903,-94.0367,4.0,4.802082881,174.5033308,6.05,'11111222,11111222,11111222' 
TABS,ioos:station:wmo:42046:1,2007-07-01T05:00:00Z,27.8903,-94.0367,4.0,4.587722747,171.7288311,6.08,'11111222,11111222,11111222' 
TABS,ioos:station:wmo:42046:1,2007-07-01T05:30:00Z,27.8903,-94.0367,4.0,4.644749724,182.591564,5.91,'11111222,11111222,11111222' 
TABS,ioos:station:wmo:42046:1,2007-07-01T06:00:00Z,27.8903,-94.0367,4.0,4.903152047,171.5561362,6.39,'11111222,11111222,11111222' 
TABS,ioos:station:wmo:42046:1,2007-07-01T06:30:00Z,27.8903,-94.0367,4.0,5.044373103,177.614272,6.56,'11111222,11111222,11111222' 
TABS,ioos:station:wmo:42046:1,2007-07-01T07:00:00Z,27.8903,-94.0367,4.0,5.485663132,169.2843388,6.64,'11111222,11111222,11111222' 
TABS,ioos:station:wmo:42046:1,2007-07-01T07:30:00Z,27.8903,-94.0367,4.0,5.141692328,173.635422,6.42,'11111222,11111222,11111222' 
TABS,ioos:station:wmo:42046:1,2007-07-01T08:00:00Z,27.8903,-94.0367,4.0,5.451330113,172.9403935,6.97,'11111222,11111222,11111222' 
TABS,ioos:station:wmo:42046:1,2007-07-01T08:30:00Z,27.8903,-94.0367,4.0,4.770513599,180.8409667,6.97,'11111222,11111222,11111222' 
TABS,ioos:station:wmo:42046:1,2007-07-01T09:00:00Z,27.8903,-94.0367,4.0,5.186231773,175.4659448,6.45,'11111222,11111222,11111222' 
TABS,ioos:station:wmo:42046:1,2007-07-01T09:30:00Z,27.8903,-94.0367,4.0,4.710859794,178.9055224,6.27,'11111222,11111222,11111222' 
TABS,ioos:station:wmo:42046:1,2007-07-01T10:00:00Z,27.8903,-94.0367,4.0,4.657263145,183.2005056,6.15,'11111222,11111222,11111222' 
TABS,ioos:station:wmo:42046:1,2007-07-01T10:30:00Z,27.8903,-94.0367,4.0,4.678386474,183.4313878,6.13,'11111222,11111222,11111222' 
TABS,ioos:station:wmo:42046:1,2007-07-01T11:00:00Z,27.8903,-94.0367,4.0,3.712856044,167.8731478,4.76,'11111222,11111222,11111222' 
TABS,ioos:station:wmo:42046:1,2007-07-01T11:30:00Z,27.8903,-94.0367,4.0,4.103084206,172.7193282,5.33,'11111222,11111222,11111222' 
TABS,ioos:station:wmo:42046:1,2007-07-01T12:00:00Z,27.8903,-94.0367,4.0,3.789261142,172.8752108,5.14,'11111222,11111222,11111222' 
TABS,ioos:station:wmo:42046:1,2007-07-01T12:30:00Z,27.8903,-94.0367,4.0,3.331215994,178.4520564,4.77,'11111222,11111222,11111222' 
TABS,ioos:station:wmo:42046:1,2007-07-01T13:00:00Z,27.8903,-94.0367,4.0,3.495854688,167.2758845,4.5,'11111222,11111222,11111222' 
TABS,ioos:station:wmo:42046:1,2007-07-01T13:30:00Z,27.8903,-94.0367,4.0,3.965904689,162.3876738,5.07,'11111222,11111222,11111222' 
TABS,ioos:station:wmo:42046:1,2007-07-01T14:00:00Z,27.8903,-94.0367,4.0,3.892723982,166.1781881,5.15,'11111222,11111222,11111222' 
TABS,ioos:station:wmo:42046:1,2007-07-01T14:30:00Z,27.8903,-94.0367,4.0,4.1323722,169.2613385,5.82,'11111222,11111222,11111222' 
TABS,ioos:station:wmo:42046:1,2007-07-01T15:00:00Z,27.8903,-94.0367,4.0,3.850467504,163.4007737,4.85,'11111222,11111222,11111222' 
TABS,ioos:station:wmo:42046:1,2007-07-01T15:30:00Z,27.8903,-94.0367,4.0,3.615356137,164.2725394,5.11,'11111222,11111222,11111222' 
TABS,ioos:station:wmo:42046:1,2007-07-01T16:00:00Z,27.8903,-94.0367,4.0,3.272323334,164.944763,4.05,'11111222,11111222,11111222' 
TABS,ioos:station:wmo:42046:1,2007-07-01T16:30:00Z,27.8903,-94.0367,4.0,3.210685285,162.9762423,3.98,'11111222,11111222,11111222' 
TABS,ioos:station:wmo:42046:1,2007-07-01T17:00:00Z,27.8903,-94.0367,4.0,3.424748166,161.6182093,4.42,'11111222,11111222,11111222' 
TABS,ioos:station:wmo:42046:1,2007-07-01T17:30:00Z,27.8903,-94.0367,4.0,3.575304183,166.7413693,4.43,'11111222,11111222,11111222' 
TABS,ioos:station:wmo:42046:1,2007-07-01T18:00:00Z,27.8903,-94.0367,4.0,3.654216742,167.6755118,4.57,'11111222,11111222,11111222' 
TABS,ioos:station:wmo:42046:1,2007-07-01T18:30:00Z,27.8903,-94.0367,4.0,4.042536333,164.2105991,5.0,'11111222,11111222,11111222' 
TABS,ioos:station:wmo:42046:1,2007-07-01T19:00:00Z,27.8903,-94.0367,4.0,4.083748278,164.2282993,5.19,'11111222,11111222,11111222' 
TABS,ioos:station:wmo:42046:1,2007-07-01T19:30:00Z,27.8903,-94.0367,4.0,4.177379561,161.4351862,5.14,'11111222,11111222,11111222' 
TABS,ioos:station:wmo:42046:1,2007-07-01T20:00:00Z,27.8903,-94.0367,4.0,4.701021166,163.1842661,5.91,'11111222,11111222,11111222' 
TABS,ioos:station:wmo:42046:1,2007-07-01T20:30:00Z,27.8903,-94.0367,4.0,4.200190472,160.529954,5.52,'11111222,11111222,11111222' 
TABS,ioos:station:wmo:42046:1,2007-07-01T21:00:00Z,27.8903,-94.0367,4.0,4.044613702,161.2517273,5.23,'11111222,11111222,11111222' 
TABS,ioos:station:wmo:42046:1,2007-07-01T21:30:00Z,27.8903,-94.0367,4.0,4.306007431,159.7556843,5.38,'11111222,11111222,11111222' 
TABS,ioos:station:wmo:42046:1,2007-07-01T22:00:00Z,27.8903,-94.0367,4.0,4.121322603,151.4452937,5.16,'11111222,11111222,11111222' 
TABS,ioos:station:wmo:42046:1,2007-07-01T22:30:00Z,27.8903,-94.0367,4.0,4.030310162,149.4266183,5.13,'11111222,11111222,11111222' 
TABS,ioos:station:wmo:42046:1,2007-07-01T23:00:00Z,27.8903,-94.0367,4.0,3.742859869,147.881317,4.8,'11111222,11111222,11111222' 
TABS,ioos:station:wmo:42046:1,2007-07-01T23:30:00Z,27.8903,-94.0367,4.0,3.917958652,139.9700448,5.02,'11111222,11111222,11111222' 
TABS,ioos:station:wmo:42046:1,2007-07-02T00:00:00Z,27.8903,-94.0367,4.0,3.960467144,138.5830228,5.03,'11111222,11111222,11111222' 
TABS,ioos:station:wmo:42046:1,2007-07-02T00:30:00Z,27.8903,-94.0367,4.0,4.179102775,144.4466782,5.75,'11111222,11111222,11111222' 
TABS,ioos:station:wmo:42046:1,2007-07-02T01:00:00Z,27.8903,-94.0367,4.0,3.880322152,151.1894841,5.17,'11111222,11111222,11111222' 
TABS,ioos:station:wmo:42046:1,2007-07-02T01:30:00Z,27.8903,-94.0367,4.0,4.166629333,145.1659868,5.32,'11111222,11111222,11111222' 
TABS,ioos:station:wmo:42046:1,2007-07-02T02:00:00Z,27.8903,-94.0367,4.0,3.99011278,143.5611852,5.56,'11111222,11111222,11111222' 
TABS,ioos:station:wmo:42046:1,2007-07-02T02:30:00Z,27.8903,-94.0367,4.0,5.002339453,150.4116721,6.34,'11111222,11111222,11111222' 
TABS,ioos:station:wmo:42046:1,2007-07-02T03:00:00Z,27.8903,-94.0367,4.0,5.062963559,154.2449999,6.45,'11111222,11111222,11111222' 
TABS,ioos:station:wmo:42046:1,2007-07-02T03:30:00Z,27.8903,-94.0367,4.0,5.216013804,154.8108387,7.01,'11111222,11111222,11111222' 
TABS,ioos:station:wmo:42046:1,2007-07-02T04:00:00Z,27.8903,-94.0367,4.0,5.628436728,158.3122711,7.27,'11111222,11111222,11111222' 
TABS,ioos:station:wmo:42046:1,2007-07-02T04:30:00Z,27.8903,-94.0367,4.0,5.976788435,161.8684535,7.61,'11111222,11111222,11111222' 
TABS,ioos:station:wmo:42046:1,2007-07-02T05:00:00Z,27.8903,-94.0367,4.0,5.220967343,161.8082285,6.54,'11111222,11111222,11111222' 
TABS,ioos:station:wmo:42046:1,2007-07-02T05:30:00Z,27.8903,-94.0367,4.0,5.565366116,159.7093017,8.11,'11111222,11111222,11111222' 
TABS,ioos:station:wmo:42046:1,2007-07-02T06:00:00Z,27.8903,-94.0367,4.0,5.820008591,163.8384898,7.68,'11111222,11111222,11111222' 
TABS,ioos:station:wmo:42046:1,2007-07-02T06:30:00Z,27.8903,-94.0367,4.0,5.471681643,159.3461674,7.56,'11111222,11111222,11111222' 
TABS,ioos:station:wmo:42046:1,2007-07-02T07:00:00Z,27.8903,-94.0367,4.0,5.410009242,157.2744916,7.59,'11111222,11111222,11111222' 
TABS,ioos:station:wmo:42046:1,2007-07-02T07:30:00Z,27.8903,-94.0367,4.0,6.065682155,150.8998011,7.82,'11111222,11111222,11111222' 
TABS,ioos:station:wmo:42046:1,2007-07-02T08:00:00Z,27.8903,-94.0367,4.0,5.457930011,158.8421581,7.05,'11111222,11111222,11111222' 
TABS,ioos:station:wmo:42046:1,2007-07-02T08:30:00Z,27.8903,-94.0367,4.0,5.718505049,157.1568895,7.86,'11111222,11111222,11111222' 
TABS,ioos:station:wmo:42046:1,2007-07-02T09:00:00Z,27.8903,-94.0367,4.0,5.532314163,157.4680307,6.88,'11111222,11111222,11111222' 
TABS,ioos:station:wmo:42046:1,2007-07-02T09:30:00Z,27.8903,-94.0367,4.0,5.653211477,159.0646204,8.18,'11111222,11111222,11111222' 
TABS,ioos:station:wmo:42046:1,2007-07-02T10:00:00Z,27.8903,-94.0367,4.0,5.072356454,161.8510662,6.67,'11111222,11111222,11111222' 
TABS,ioos:station:wmo:42046:1,2007-07-02T10:30:00Z,27.8903,-94.0367,4.0,5.447127683,153.1529791,7.43,'11111222,11111222,11111222' 
TABS,ioos:station:wmo:42046:1,2007-07-02T11:00:00Z,27.8903,-94.0367,4.0,5.451843725,156.7740751,7.48,'11111222,11111222,11111222' 
TABS,ioos:station:wmo:42046:1,2007-07-02T11:30:00Z,27.8903,-94.0367,4.0,4.84979381,150.4752019,6.38,'11111222,11111222,11111222' 
TABS,ioos:station:wmo:42046:1,2007-07-02T12:00:00Z,27.8903,-94.0367,4.0,4.958316246,143.7775188,6.2,'11111222,11111222,11111222' 
TABS,ioos:station:wmo:42046:1,2007-07-02T12:30:00Z,27.8903,-94.0367,4.0,5.168529772,142.3100453,6.84,'11111222,11111222,11111222' 
TABS,ioos:station:wmo:42046:1,2007-07-02T13:00:00Z,27.8903,-94.0367,4.0,5.044006344,143.2212723,6.71,'11111222,11111222,11111222' 
TABS,ioos:station:wmo:42046:1,2007-07-02T13:30:00Z,27.8903,-94.0367,4.0,5.266013673,143.2609624,6.64,'11111222,11111222,11111222' 
TABS,ioos:station:wmo:42046:1,2007-07-02T14:00:00Z,27.8903,-94.0367,4.0,4.624110725,149.8865477,5.95,'11111222,11111222,11111222' 
TABS,ioos:station:wmo:42046:1,2007-07-02T14:30:00Z,27.8903,-94.0367,4.0,5.055788761,148.9199139,6.59,'11111222,11111222,11111222' 
TABS,ioos:station:wmo:42046:1,2007-07-02T15:00:00Z,27.8903,-94.0367,4.0,5.294799335,146.7904254,6.97,'11111222,11111222,11111222' 
TABS,ioos:station:wmo:42046:1,2007-07-02T15:30:00Z,27.8903,-94.0367,4.0,5.080679088,140.6712225,6.4,'11111222,11111222,11111222' 
TABS,ioos:station:wmo:42046:1,2007-07-02T16:00:00Z,27.8903,-94.0367,4.0,4.978835205,141.1967146,6.05,'11111222,11111222,11111222' 
TABS,ioos:station:wmo:42046:1,2007-07-02T16:30:00Z,27.8903,-94.0367,4.0,4.865901766,133.8345768,6.3,'11111222,11111222,11111222' 
TABS,ioos:station:wmo:42046:1,2007-07-02T17:00:00Z,27.8903,-94.0367,4.0,4.841745553,144.6689617,6.78,'11111222,11111222,11111222' 
TABS,ioos:station:wmo:42046:1,2007-07-02T17:30:00Z,27.8903,-94.0367,4.0,4.549428536,152.0833627,7.73,'11111222,11111222,11111222' 
TABS,ioos:station:wmo:42046:1,2007-07-02T18:00:00Z,27.8903,-94.0367,4.0,5.809853699,155.8174878,7.31,'11111222,11111222,11111222' 
TABS,ioos:station:wmo:42046:1,2007-07-02T18:30:00Z,27.8903,-94.0367,4.0,5.26758009,147.2454546,6.58,'11111222,11111222,11111222' 
TABS,ioos:station:wmo:42046:1,2007-07-02T19:00:00Z,27.8903,-94.0367,4.0,5.450614644,155.5041152,7.03,'11111222,11111222,11111222' 
TABS,ioos:station:wmo:42046:1,2007-07-02T19:30:00Z,27.8903,-94.0367,4.0,4.6575208,150.4079833,6.11,'11111222,11111222,11111222' 
TABS,ioos:station:wmo:42046:1,2007-07-02T20:00:00Z,27.8903,-94.0367,4.0,4.575871502,149.6807531,5.45,'11111222,11111222,11111222' 
TABS,ioos:station:wmo:42046:1,2007-07-02T20:30:00Z,27.8903,-94.0367,4.0,4.691375065,153.8175508,6.33,'11111222,11111222,11111222' 
TABS,ioos:station:wmo:42046:1,2007-07-02T21:00:00Z,27.8903,-94.0367,4.0,3.980163313,156.1400911,5.7,'11111222,11111222,11111222' 
TABS,ioos:station:wmo:42046:1,2007-07-02T21:30:00Z,27.8903,-94.0367,4.0,3.288419073,163.9351869,4.07,'11111222,11111222,11111222' 
TABS,ioos:station:wmo:42046:1,2007-07-02T22:00:00Z,27.8903,-94.0367,4.0,2.75960142,163.7981782,3.64,'11111222,11111222,11111222' 
TABS,ioos:station:wmo:42046:1,2007-07-02T22:30:00Z,27.8903,-94.0367,4.0,3.043846251,165.7357315,4.01,'11111222,11111222,11111222' 
TABS,ioos:station:wmo:42046:1,2007-07-02T23:00:00Z,27.8903,-94.0367,4.0,3.361487766,159.0851227,4.2,'11111222,11111222,11111222' 
TABS,ioos:station:wmo:42046:1,2007-07-02T23:30:00Z,27.8903,-94.0367,4.0,4.216171249,142.6139912,5.64,'11111222,11111222,11111222' 
TABS,ioos:station:wmo:42046:1,2007-07-03T00:00:00Z,27.8903,-94.0367,4.0,4.157018162,144.3985267,5.16,'11111222,11111222,11111222' 
TABS,ioos:station:wmo:42046:1,2007-07-03T00:30:00Z,27.8903,-94.0367,4.0,4.355743335,138.25753,5.92,'11111222,11111222,11111222' 
TABS,ioos:station:wmo:42046:1,2007-07-03T01:00:00Z,27.8903,-94.0367,4.0,4.194472553,145.0977965,5.57,'11111222,11111222,11111222' 
TABS,ioos:station:wmo:42046:1,2007-07-03T01:30:00Z,27.8903,-94.0367,4.0,4.143645738,135.0003157,5.15,'11111222,11111222,11111222' 
TABS,ioos:station:wmo:42046:1,2007-07-03T02:00:00Z,27.8903,-94.0367,4.0,4.237098064,129.0613918,5.54,'11111222,11111222,11111222' 
TABS,ioos:station:wmo:42046:1,2007-07-03T02:30:00Z,27.8903,-94.0367,4.0,4.404089009,126.5059598,5.95,'11111222,11111222,11111222' 
TABS,ioos:station:wmo:42046:1,2007-07-03T03:00:00Z,27.8903,-94.0367,4.0,4.637510108,129.6635301,5.99,'11111222,11111222,11111222' 
TABS,ioos:station:wmo:42046:1,2007-07-03T03:30:00Z,27.8903,-94.0367,4.0,4.771247216,124.7562522,6.21,'11111222,11111222,11111222' 
TABS,ioos:station:wmo:42046:1,2007-07-03T04:00:00Z,27.8903,-94.0367,4.0,3.235938813,128.8537044,5.04,'11111222,11111222,11111222' 
TABS,ioos:station:wmo:42046:1,2007-07-03T04:30:00Z,27.8903,-94.0367,4.0,5.1623638,121.5351391,6.45,'11111222,11111222,11111222' 
TABS,ioos:station:wmo:42046:1,2007-07-03T05:00:00Z,27.8903,-94.0367,4.0,4.81,112.620233,6.08,'11111222,11111222,11111222' 
TABS,ioos:station:wmo:42046:1,2007-07-03T05:30:00Z,27.8903,-94.0367,4.0,5.050594024,123.9421187,6.71,'11111222,11111222,11111222' 
TABS,ioos:station:wmo:42046:1,2007-07-03T06:00:00Z,27.8903,-94.0367,4.0,5.574872196,123.291342,7.39,'11111222,11111222,11111222' 
TABS,ioos:station:wmo:42046:1,2007-07-03T06:30:00Z,27.8903,-94.0367,4.0,5.719449274,122.9402186,7.44,'11111222,11111222,11111222' 
TABS,ioos:station:wmo:42046:1,2007-07-03T07:00:00Z,27.8903,-94.0367,4.0,6.659557042,140.7895899,9.23,'11111222,11111222,11111222' 
TABS,ioos:station:wmo:42046:1,2007-07-03T07:30:00Z,27.8903,-94.0367,4.0,5.312720584,125.0365348,7.01,'11111222,11111222,11111222' 
TABS,ioos:station:wmo:42046:1,2007-07-03T08:00:00Z,27.8903,-94.0367,4.0,6.081184095,135.2668051,7.56,'11111222,11111222,11111222' 
TABS,ioos:station:wmo:42046:1,2007-07-03T08:30:00Z,27.8903,-94.0367,4.0,5.999541649,144.4293108,7.93,'11111222,11111222,11111222' 
TABS,ioos:station:wmo:42046:1,2007-07-03T09:00:00Z,27.8903,-94.0367,4.0,4.235327614,131.7462072,5.26,'11111222,11111222,11111222' 
TABS,ioos:station:wmo:42046:1,2007-07-03T09:30:00Z,27.8903,-94.0367,4.0,2.439200689,110.1440285,3.47,'11111222,11111222,11111222' 
TABS,ioos:station:wmo:42046:1,2007-07-03T10:00:00Z,27.8903,-94.0367,4.0,1.80346888,277.0067833,5.18,'11111222,11111222,11111222' 
TABS,ioos:station:wmo:42046:1,2007-07-03T10:30:00Z,27.8903,-94.0367,4.0,3.941383006,275.970947,6.17,'11111222,11111222,11111222' 
TABS,ioos:station:wmo:42046:1,2007-07-03T11:00:00Z,27.8903,-94.0367,4.0,2.910755916,238.057287,4.27,'11111222,11111222,11111222' 
TABS,ioos:station:wmo:42046:1,2007-07-03T11:30:00Z,27.8903,-94.0367,4.0,3.015974138,185.8998217,4.03,'11111222,11111222,11111222' 
TABS,ioos:station:wmo:42046:1,2007-07-03T12:00:00Z,27.8903,-94.0367,4.0,3.131660901,184.9461654,4.34,'11111222,11111222,11111222' 
TABS,ioos:station:wmo:42046:1,2007-07-03T12:30:00Z,27.8903,-94.0367,4.0,3.391784191,178.1417118,4.43,'11111222,11111222,11111222' 
TABS,ioos:station:wmo:42046:1,2007-07-03T13:00:00Z,27.8903,-94.0367,4.0,4.343662049,205.2082958,5.13,'11111222,11111222,11111222' 
TABS,ioos:station:wmo:42046:1,2007-07-03T13:30:00Z,27.8903,-94.0367,4.0,3.115124396,192.6087878,4.26,'11111222,11111222,11111222' 
TABS,ioos:station:wmo:42046:1,2007-07-03T14:00:00Z,27.8903,-94.0367,4.0,3.665801413,185.3219821,4.8,'11111222,11111222,11111222' 
TABS,ioos:station:wmo:42046:1,2007-07-03T14:30:00Z,27.8903,-94.0367,4.0,4.117049915,190.3548226,5.36,'11111222,11111222,11111222' 
TABS,ioos:station:wmo:42046:1,2007-07-03T15:00:00Z,27.8903,-94.0367,4.0,4.020957597,185.8525758,5.22,'11111222,11111222,11111222' 
TABS,ioos:station:wmo:42046:1,2007-07-03T15:30:00Z,27.8903,-94.0367,4.0,4.249764699,200.5246485,5.45,'11111222,11111222,11111222' 
TABS,ioos:station:wmo:42046:1,2007-07-03T16:00:00Z,27.8903,-94.0367,4.0,3.838033351,196.499232,5.17,'11111222,11111222,11111222' 
TABS,ioos:station:wmo:42046:1,2007-07-03T16:30:00Z,27.8903,-94.0367,4.0,3.352163481,197.8946072,4.51,'11111222,11111222,11111222' 
TABS,ioos:station:wmo:42046:1,2007-07-03T17:00:00Z,27.8903,-94.0367,4.0,2.075427667,175.8555964,2.73,'11111222,11111222,11111222' 
TABS,ioos:station:wmo:42046:1,2007-07-03T17:30:00Z,27.8903,-94.0367,4.0,1.949204966,163.6107085,2.74,'11111222,11111222,11111222' 
TABS,ioos:station:wmo:42046:1,2007-07-03T18:00:00Z,27.8903,-94.0367,4.0,4.047171852,156.0952744,5.27,'11111222,11111222,11111222' 
TABS,ioos:station:wmo:42046:1,2007-07-03T18:30:00Z,27.8903,-94.0367,4.0,3.768182586,172.9883686,5.13,'11111222,11111222,11111222' 
TABS,ioos:station:wmo:42046:1,2007-07-03T19:00:00Z,27.8903,-94.0367,4.0,3.689620577,174.0887568,4.85,'11111222,11111222,11111222' 
TABS,ioos:station:wmo:42046:1,2007-07-03T19:30:00Z,27.8903,-94.0367,4.0,4.282534296,148.4629007,5.22,'11111222,11111222,11111222' 
TABS,ioos:station:wmo:42046:1,2007-07-03T20:00:00Z,27.8903,-94.0367,4.0,4.243642303,138.5349548,5.0,'11111222,11111222,11111222' 
TABS,ioos:station:wmo:42046:1,2007-07-03T20:30:00Z,27.8903,-94.0367,4.0,4.593702211,132.4418116,5.75,'11111222,11111222,11111222' 
TABS,ioos:station:wmo:42046:1,2007-07-03T21:00:00Z,27.8903,-94.0367,4.0,4.615040628,125.6534727,5.99,'11111222,11111222,11111222' 
TABS,ioos:station:wmo:42046:1,2007-07-03T21:30:00Z,27.8903,-94.0367,4.0,4.211721738,130.7639308,5.43,'11111222,11111222,11111222' 
TABS,ioos:station:wmo:42046:1,2007-07-03T22:00:00Z,27.8903,-94.0367,4.0,4.392413915,133.616632,5.53,'11111222,11111222,11111222' 
TABS,ioos:station:wmo:42046:1,2007-07-03T22:30:00Z,27.8903,-94.0367,4.0,4.687216658,137.940409,6.01,'11111222,11111222,11111222' 
TABS,ioos:station:wmo:42046:1,2007-07-03T23:00:00Z,27.8903,-94.0367,4.0,5.225562171,135.2329084,6.7,'11111222,11111222,11111222' 
TABS,ioos:station:wmo:42046:1,2007-07-03T23:30:00Z,27.8903,-94.0367,4.0,5.54582726,130.6128265,7.11,'11111222,11111222,11111222' 
TABS,ioos:station:wmo:42046:1,2007-07-04T00:00:00Z,27.8903,-94.0367,4.0,4.989589161,138.9008003,6.74,'11111222,11111222,11111222' 
TABS,ioos:station:wmo:42046:1,2007-07-04T00:30:00Z,27.8903,-94.0367,4.0,6.194255403,176.11231,8.39,'11111222,11111222,11111222' 
TABS,ioos:station:wmo:42046:1,2007-07-04T01:00:00Z,27.8903,-94.0367,4.0,4.073843394,162.7217368,6.33,'11111222,11111222,11111222' 
TABS,ioos:station:wmo:42046:1,2007-07-04T01:30:00Z,27.8903,-94.0367,4.0,3.814302033,143.8514388,4.9,'11111222,11111222,11111222' 
TABS,ioos:station:wmo:42046:1,2007-07-04T02:00:00Z,27.8903,-94.0367,4.0,4.133037624,129.6994016,5.27,'11111222,11111222,11111222' 
TABS,ioos:station:wmo:42046:1,2007-07-04T02:30:00Z,27.8903,-94.0367,4.0,4.518860476,135.8072433,5.86,'11111222,11111222,11111222' 
TABS,ioos:station:wmo:42046:1,2007-07-04T03:00:00Z,27.8903,-94.0367,4.0,3.85659176,137.2069462,5.0,'11111222,11111222,11111222' 
TABS,ioos:station:wmo:42046:1,2007-07-04T03:30:00Z,27.8903,-94.0367,4.0,4.02631345,130.9720614,5.22,'11111222,11111222,11111222' 
TABS,ioos:station:wmo:42046:1,2007-07-04T04:00:00Z,27.8903,-94.0367,4.0,5.665200791,136.2161456,8.4,'11111222,11111222,11111222' 
TABS,ioos:station:wmo:42046:1,2007-07-04T04:30:00Z,27.8903,-94.0367,4.0,9.563315325,129.399336,13.77,'11111222,11111222,11111222' 
TABS,ioos:station:wmo:42046:1,2007-07-04T05:00:00Z,27.8903,-94.0367,4.0,6.273188982,136.098294,8.43,'11111222,11111222,11111222' 
TABS,ioos:station:wmo:42046:1,2007-07-04T05:30:00Z,27.8903,-94.0367,4.0,5.991635837,139.2641733,7.92,'11111222,11111222,11111222' 
TABS,ioos:station:wmo:42046:1,2007-07-04T06:00:00Z,27.8903,-94.0367,4.0,8.101950382,138.2023288,10.7,'11111222,11111222,11111222' 
TABS,ioos:station:wmo:42046:1,2007-07-04T06:30:00Z,27.8903,-94.0367,4.0,8.205394567,139.3990108,11.22,'11111222,11111222,11111222' 
TABS,ioos:station:wmo:42046:1,2007-07-04T07:00:00Z,27.8903,-94.0367,4.0,7.86168557,130.9257233,11.43,'11111222,11111222,11111222' 
TABS,ioos:station:wmo:42046:1,2007-07-04T07:30:00Z,27.8903,-94.0367,4.0,7.987415101,130.43045,10.41,'11111222,11111222,11111222' 
TABS,ioos:station:wmo:42046:1,2007-07-04T08:00:00Z,27.8903,-94.0367,4.0,7.364523067,122.8056885,10.15,'11111222,11111222,11111222' 
TABS,ioos:station:wmo:42046:1,2007-07-04T08:30:00Z,27.8903,-94.0367,4.0,5.589391738,120.4191184,7.55,'11111222,11111222,11111222' 
TABS,ioos:station:wmo:42046:1,2007-07-04T09:00:00Z,27.8903,-94.0367,4.0,6.229815407,128.8755889,9.29,'11111222,11111222,11111222' 
TABS,ioos:station:wmo:42046:1,2007-07-04T09:30:00Z,27.8903,-94.0367,4.0,7.130063113,157.1393242,9.48,'11111222,11111222,11111222' 
TABS,ioos:station:wmo:42046:1,2007-07-04T10:00:00Z,27.8903,-94.0367,4.0,10.40624812,160.3464324,15.56,'11111222,11111222,11111222' 
TABS,ioos:station:wmo:42046:1,2007-07-04T10:30:00Z,27.8903,-94.0367,4.0,8.12118218,146.8581142,11.62,'11111222,11111222,11111222' 
TABS,ioos:station:wmo:42046:1,2007-07-04T11:00:00Z,27.8903,-94.0367,4.0,7.448288394,140.7758442,9.19,'11111222,11111222,11111222' 
TABS,ioos:station:wmo:42046:1,2007-07-04T11:30:00Z,27.8903,-94.0367,4.0,6.735317364,148.2924689,8.65,'11111222,11111222,11111222' 
TABS,ioos:station:wmo:42046:1,2007-07-04T12:00:00Z,27.8903,-94.0367,4.0,6.353022903,144.1585795,8.41,'11111222,11111222,11111222' 
TABS,ioos:station:wmo:42046:1,2007-07-04T12:30:00Z,27.8903,-94.0367,4.0,6.897717014,157.2270481,9.85,'11111222,11111222,11111222' 
TABS,ioos:station:wmo:42046:1,2007-07-04T13:00:00Z,27.8903,-94.0367,4.0,6.176681957,156.6311519,8.24,'11111222,11111222,11111222' 
TABS,ioos:station:wmo:42046:1,2007-07-04T13:30:00Z,27.8903,-94.0367,4.0,6.383455177,159.2656246,8.61,'11111222,11111222,11111222' 
TABS,ioos:station:wmo:42046:1,2007-07-04T14:00:00Z,27.8903,-94.0367,4.0,7.433720468,165.9079193,10.13,'11111222,11111222,11111222' 
TABS,ioos:station:wmo:42046:1,2007-07-04T14:30:00Z,27.8903,-94.0367,4.0,7.684920299,169.6553772,10.34,'11111222,11111222,11111222' 
TABS,ioos:station:wmo:42046:1,2007-07-04T15:00:00Z,27.8903,-94.0367,4.0,6.460108358,168.481578,9.12,'11111222,11111222,11111222' 
TABS,ioos:station:wmo:42046:1,2007-07-04T15:30:00Z,27.8903,-94.0367,4.0,6.984590181,169.6073426,9.32,'11111222,11111222,11111222' 
TABS,ioos:station:wmo:42046:1,2007-07-04T16:00:00Z,27.8903,-94.0367,4.0,7.629528164,164.725368,9.84,'11111222,11111222,11111222' 
TABS,ioos:station:wmo:42046:1,2007-07-04T16:30:00Z,27.8903,-94.0367,4.0,6.890464426,165.8026609,8.93,'11111222,11111222,11111222' 
TABS,ioos:station:wmo:42046:1,2007-07-04T17:00:00Z,27.8903,-94.0367,4.0,6.28440928,163.6415789,8.17,'11111222,11111222,11111222' 
TABS,ioos:station:wmo:42046:1,2007-07-04T17:30:00Z,27.8903,-94.0367,4.0,5.790345413,158.8419768,7.86,'11111222,11111222,11111222' 
TABS,ioos:station:wmo:42046:1,2007-07-04T18:00:00Z,27.8903,-94.0367,4.0,5.644129694,166.5795288,7.62,'11111222,11111222,11111222' 
TABS,ioos:station:wmo:42046:1,2007-07-04T18:30:00Z,27.8903,-94.0367,4.0,5.353923795,155.9725824,6.68,'11111222,11111222,11111222' 